Wind_Speed
13 12 12 12 11 11 11 12 11 10 11 11 11 9 9 12 13 13 13 13 12 11 9 8 7 6 5 5 12 11 8 9 11 10 10 10 8 7 7 10 9 6 8 6 9
12 11 10 11 11 11 11 11 11 10 9 11 10 10 9 10 13 16 14 13 13 12 11 11 10 6 2 6 10 7 8 9 12 11 11 9 7 6 8 8 6 5 6 10 9
13 12 11 11 10 8 10 11 9 8 8 10 10 10 10 9 11 16 16 15 14 14 14 15 13 8 6 4 6 5 9 8 8 8 11 9 8 7 8 6 4 7 6 10 10
12 11 10 11 12 11 10 11 11 9 8 8 9 11 11 10 6 14 17 17 16 14 14 14 15 13 6 3 10 9 10 9 7 7 11 10 8 7 7 6 2 4 9 6 10
13 12 11 10 10 10 10 10 10 10 10 8 8 10 11 12 14 10 18 18 16 16 16 16 16 15 6 6 11 11 8 9 6 9 10 8 7 5 7 5 6 6 7 7 9
14 13 13 12 10 9 8 10 9 9 10 8 8 10 12 12 14 11 18 19 18 18 18 19 17 16 9 9 10 14 14 8 7 7 6 8 8 6 7 4 5 5 5 7 6
14 12 12 12 12 10 9 8 8 8 7 8 8 10 13 15 14 13 17 20 20 18 18 19 22 18 14 9 13 16 12 4 5 8 6 8 8 7 7 6 3 2 3 6 6
15 13 11 11 10 10 10 9 7 6 6 6 9 11 14 15 16 14 14 16 17 17 18 19 22 17 17 15 14 12 7 5 7 9 8 10 8 11 8 6 2 4 1 3 6
16 14 12 11 10 9 9 9 8 4 5 6 10 13 13 15 18 17 16 13 15 15 15 18 20 16 18 14 13 14 14 10 10 7 6 10 8 10 7 6 5 3 5 5 8
15 15 14 11 10 8 8 8 7 4 4 7 11 11 13 19 21 20 18 17 14 13 13 18 17 16 16 18 20 17 15 15 10 7 7 9 7 4 7 11 9 7 6 7 9
15 14 13 12 10 8 6 7 5 3 6 13 14 14 15 17 18 19 20 18 15 11 11 14 14 21 20 18 10 12 13 13 12 4 8 10 8 8 8 10 12 9 7 10 10
17 14 12 11 10 7 6 5 5 5 5 11 13 10 16 18 17 16 16 13 15 13 14 13 18 15 14 15 13 11 14 12 10 6 6 6 9 8 10 11 12 10 8 10 16
17 14 12 10 9 6 5 4 4 3 7 9 15 14 14 15 11 13 12 12 12 16 16 14 12 16 14 13 15 15 14 13 9 10 7 5 9 9 10 11 13 11 13 15 17
16 13 11 9 7 6 4 3 4 8 6 7 12 11 12 11 8 11 12 9 10 13 14 14 11 13 14 15 16 19 15 12 14 10 16 12 11 12 13 12 15 16 16 16 16
16 13 10 8 6 5 4 3 7 12 5 9 13 13 12 8 9 10 13 9 9 12 13 11 15 12 15 15 14 17 10 12 12 18 19 14 12 10 8 13 17 21 20 18 18
18 12 10 6 5 4 4 5 9 4 5 9 12 10 11 9 6 13 10 10 9 9 11 8 11 13 16 11 13 13 11 12 12 17 20 23 21 18 15 15 11 19 22 22 20
16 10 8 4 3 4 4 9 4 6 9 10 13 14 12 11 9 11 12 10 5 9 9 12 11 8 12 14 12 14 15 14 13 15 15 21 19 24 5 12 10 12 19 23 22
14 9 4 1 4 5 7 7 7 6 9 13 13 15 12 12 9 10 12 9 8 5 7 10 13 16 12 17 13 18 21 17 14 13 18 18 13 25 20 18 13 13 15 18 26
11 6 2 1 4 7 11 8 4 8 9 13 16 16 12 13 12 11 9 8 7 6 2 5 5 10 12 13 14 16 22 20 20 12 14 21 18 21 16 15 12 5 13 15 18
8 3 2 3 5 8 9 7 5 11 13 17 13 13 14 13 12 12 11 10 6 9 6 3 4 7 9 12 14 11 11 16 18 14 14 20 15 17 20 18 16 11 10 14 16
5 3 6 5 7 9 9 8 9 14 16 10 9 11 12 12 11 10 8 9 10 10 9 7 5 9 8 12 11 14 16 17 16 22 12 13 14 17 13 11 14 13 15 15 15
6 4 9 7 5 12 10 10 15 11 16 12 12 9 10 13 8 7 8 10 10 11 8 11 7 8 10 6 7 9 11 14 19 19 18 18 2 6 15 7 18 18 15 11 11
7 11 11 10 7 9 13 11 18 9 13 8 10 11 12 11 5 7 9 11 11 13 9 10 9 12 10 7 6 8 6 10 15 14 16 18 20 5 5 10 15 18 19 16 15
7 6 13 15 14 11 13 13 15 17 12 13 10 10 9 7 10 9 8 13 14 14 15 13 10 13 8 4 3 10 7 5 10 16 23 21 12 4 9 14 7 6 10 16 18
7 13 15 8 13 13 16 15 15 13 14 11 9 8 8 6 6 7 8 11 12 13 13 10 11 10 11 6 4 7 8 7 9 11 11 4 16 6 17 15 9 5 5 11 17
12 14 17 20 16 19 17 15 17 16 12 12 9 11 7 6 8 10 10 11 9 7 8 9 9 7 12 10 11 14 16 15 15 14 13 15 12 18 23 18 15 9 9 6 9
15 13 16 16 19 18 18 15 16 15 14 14 12 12 7 10 13 14 15 16 13 10 7 8 10 10 18 10 11 18 21 20 16 15 15 16 8 20 22 19 22 12 11 10 7
Wind_Direction
327 322 318 315 311 305 297 291 283 275 265 254 246 244 236 226 208 207 211 211 210 206 195 177 153 141 146 140 154 153 127 144 139 128 131 132 108 103 90 111 120 127 132 133 123
336 331 326 321 318 314 308 301 289 278 263 254 243 236 232 231 214 206 206 204 203 198 192 170 161 163 140 137 157 127 153 126 132 128 131 142 128 115 110 107 69 48 150 127 130
340 334 331 328 322 318 312 308 297 275 261 246 237 230 222 220 220 213 204 201 194 195 194 173 171 163 153 163 166 147 137 140 140 134 138 138 135 120 131 131 60 78 99 126 136
339 334 331 330 327 322 317 311 308 293 271 245 233 222 219 203 193 215 208 203 193 188 190 179 172 158 158 153 162 128 145 142 156 157 140 140 146 132 114 135 83 84 112 108 133
331 329 325 323 323 319 309 307 305 296 279 261 231 223 211 204 213 209 205 203 198 185 183 183 181 174 167 167 155 145 140 139 116 167 163 166 160 155 151 111 81 77 123 119 137
334 329 325 318 314 315 303 303 305 292 275 257 232 220 207 203 214 208 204 201 199 190 185 179 183 182 187 160 162 154 151 150 153 164 142 160 185 173 191 149 90 83 125 127 139
341 328 318 316 310 309 299 298 301 293 271 248 225 212 207 205 204 205 203 200 201 197 190 186 183 178 183 177 181 156 157 191 181 188 177 177 193 185 205 205 194 90 128 155 149
339 331 321 314 307 307 301 298 296 285 265 227 208 208 206 202 199 200 193 200 202 205 196 192 186 182 176 195 181 173 155 183 189 192 205 195 161 187 205 218 252 216 190 190 167
335 332 326 321 311 306 297 296 299 267 229 203 191 197 202 195 194 192 188 188 200 205 203 196 192 187 197 183 188 191 193 200 184 187 190 197 138 181 213 201 209 220 234 215 192
337 330 328 327 318 304 289 293 298 278 205 173 180 171 194 192 193 192 194 194 196 200 199 196 194 202 194 199 200 202 210 185 183 206 213 197 195 178 191 194 199 214 238 225 209
344 331 327 325 318 302 283 290 292 252 202 180 184 186 192 186 184 192 201 203 199 186 185 189 194 203 206 204 240 190 208 196 185 217 198 210 210 209 202 198 204 204 243 218 202
352 333 329 321 313 306 281 287 268 241 202 196 186 188 176 181 179 189 197 191 198 191 188 196 205 205 201 202 201 198 194 189 192 193 176 218 217 219 205 202 212 216 206 209 194
352 338 334 324 312 305 272 275 236 220 153 179 176 164 164 157 166 182 180 192 192 197 198 205 208 213 197 210 206 211 211 204 213 219 221 227 234 226 227 215 206 209 204 200 204
347 338 336 328 318 296 261 251 196 162 137 160 160 161 163 159 177 183 171 170 185 199 203 207 217 206 201 208 209 217 219 212 223 237 231 221 255 234 229 231 222 202 212 212 208
344 332 334 323 316 294 263 223 166 153 200 163 172 170 164 159 178 180 179 171 193 195 183 203 209 196 208 210 211 215 216 214 219 227 243 221 246 231 221 236 226 209 211 218 213
335 332 320 320 293 240 217 174 162 197 141 161 175 169 159 156 163 150 147 154 168 185 199 214 197 202 212 206 202 213 213 217 226 235 237 235 242 245 235 232 246 218 213 210 213
334 328 316 316 272 217 183 156 178 254 162 157 167 166 168 164 158 165 160 148 155 164 184 208 204 205 183 198 199 198 204 208 220 222 239 235 226 231 220 226 232 228 220 220 213
333 324 318 277 226 200 166 161 235 189 167 172 160 161 172 164 166 162 168 166 148 141 157 201 195 207 206 198 211 212 210 226 215 228 222 210 224 238 239 248 254 236 218 219 217
332 321 315 176 206 194 165 205 197 179 169 161 157 170 173 178 169 170 173 175 172 165 254 173 189 192 192 203 200 208 218 225 267 260 275 202 228 242 229 235 247 244 208 215 216
329 294 246 189 190 191 176 216 190 173 166 161 174 173 177 182 182 186 183 202 200 196 187 201 192 173 197 193 214 212 230 208 223 246 233 238 235 233 228 231 232 241 221 222 222
306 238 222 195 191 189 197 210 176 174 168 163 174 168 163 166 173 174 178 201 208 207 194 188 232 169 177 202 212 212 226 227 242 225 239 237 216 233 234 203 223 244 251 228 210
275 225 224 199 188 202 207 184 187 181 186 187 185 152 166 170 155 165 179 181 199 191 184 200 223 210 180 183 197 220 235 226 223 219 235 277 253 153 226 237 235 232 229 231 222
250 233 224 211 208 214 215 202 206 180 182 174 169 179 181 178 165 167 188 198 200 195 192 197 219 215 201 208 219 217 211 225 235 248 237 218 226 148 191 221 230 245 247 241 221
254 231 230 222 220 197 198 191 187 188 187 190 185 178 182 182 193 191 191 207 206 204 207 205 218 243 303 36 145 196 208 229 242 241 234 230 222 183 223 225 222 221 236 226 226
270 236 220 222 221 206 197 203 194 196 202 191 194 179 177 177 178 198 192 210 214 210 210 201 223 227 245 266 253 224 227 241 247 252 255 227 231 256 223 216 243 263 264 230 223
265 236 226 224 218 206 201 201 200 207 198 211 206 211 218 211 208 215 198 198 208 220 208 215 223 233 236 244 245 248 246 249 249 250 252 262 259 248 241 238 238 244 251 269 227
261 238 226 231 216 204 211 207 192 201 209 212 208 226 212 223 234 224 213 214 215 204 218 224 223 235 242 224 255 250 248 246 245 242 244 249 254 250 239 227 227 230 238 255 276
Height
3156 3154 3152 3150 3149 3148 3146 3145 3146 3146 3146 3146 3146 3147 3148 3149 3151 3153 3155 3158 3159 3162 3165 3167 3168 3168 3169 3170 3171 3173 3176 3175 3177 3179 3181 3182 3183 3182 3182 3181 3184 3184 3186 3187 3187
3154 3152 3151 3150 3148 3146 3145 3144 3143 3143 3143 3143 3144 3145 3146 3147 3150 3151 3154 3155 3158 3161 3163 3166 3169 3169 3170 3171 3172 3173 3175 3177 3179 3180 3182 3183 3185 3184 3185 3185 3185 3186 3186 3187 3189
3151 3150 3148 3147 3147 3146 3144 3142 3141 3141 3141 3141 3142 3143 3145 3146 3148 3150 3151 3153 3156 3159 3162 3166 3168 3170 3172 3172 3174 3176 3177 3179 3179 3181 3183 3184 3186 3187 3188 3189 3188 3187 3188 3188 3190
3149 3147 3147 3146 3144 3143 3142 3141 3140 3139 3138 3139 3140 3141 3143 3145 3150 3147 3150 3152 3155 3158 3162 3165 3168 3171 3173 3175 3174 3178 3177 3179 3181 3181 3184 3186 3187 3188 3190 3191 3189 3188 3189 3190 3191
3146 3144 3143 3142 3141 3141 3140 3138 3138 3138 3137 3137 3138 3140 3141 3144 3144 3145 3148 3152 3154 3157 3161 3165 3168 3172 3175 3175 3176 3178 3178 3178 3181 3181 3185 3186 3188 3189 3190 3189 3189 3189 3190 3191 3193
3145 3143 3141 3139 3138 3137 3136 3136 3136 3135 3135 3136 3137 3139 3140 3143 3142 3144 3146 3150 3153 3157 3159 3163 3168 3171 3173 3175 3178 3176 3177 3179 3181 3183 3184 3186 3188 3188 3190 3190 3190 3190 3191 3193 3194
3143 3140 3138 3137 3136 3134 3133 3132 3132 3132 3133 3133 3135 3137 3139 3140 3140 3142 3145 3148 3151 3155 3159 3162 3165 3170 3173 3176 3175 3175 3178 3180 3181 3183 3186 3187 3189 3189 3189 3190 3191 3191 3192 3193 3195
3139 3137 3136 3134 3133 3132 3131 3129 3129 3129 3130 3132 3132 3135 3136 3138 3139 3142 3144 3147 3151 3154 3158 3161 3164 3168 3172 3173 3176 3179 3180 3181 3182 3183 3185 3185 3185 3189 3188 3189 3190 3192 3193 3194 3195
3136 3135 3133 3132 3131 3130 3129 3128 3127 3126 3127 3129 3131 3134 3135 3136 3139 3141 3143 3147 3149 3153 3157 3160 3164 3168 3170 3175 3178 3179 3179 3180 3182 3182 3184 3185 3184 3188 3188 3189 3190 3192 3193 3194 3195
3135 3133 3131 3130 3129 3128 3127 3126 3125 3125 3126 3127 3130 3135 3134 3134 3136 3139 3142 3145 3149 3152 3156 3160 3164 3168 3170 3173 3173 3175 3174 3178 3180 3182 3183 3185 3187 3187 3188 3190 3190 3191 3192 3194 3195
3133 3130 3129 3128 3126 3126 3125 3125 3127 3126 3125 3125 3128 3129 3131 3134 3136 3139 3142 3145 3149 3154 3158 3160 3165 3166 3169 3171 3171 3173 3174 3176 3180 3180 3182 3183 3186 3187 3187 3190 3190 3190 3192 3193 3195
3131 3128 3126 3124 3123 3123 3123 3123 3123 3125 3125 3126 3127 3129 3130 3133 3136 3138 3142 3147 3149 3154 3157 3159 3161 3165 3165 3167 3171 3173 3175 3177 3179 3179 3181 3182 3184 3186 3186 3188 3190 3190 3192 3193 3193
3128 3125 3124 3123 3122 3122 3121 3122 3121 3122 3124 3127 3128 3130 3133 3136 3140 3138 3142 3145 3148 3152 3154 3158 3160 3159 3164 3167 3170 3172 3173 3176 3177 3179 3180 3182 3182 3183 3184 3185 3187 3188 3190 3192 3192
3126 3123 3122 3121 3123 3120 3120 3120 3121 3122 3127 3128 3130 3132 3134 3136 3139 3138 3141 3146 3147 3151 3153 3156 3155 3159 3162 3165 3168 3169 3172 3174 3176 3178 3177 3179 3175 3179 3181 3182 3183 3185 3187 3190 3191
3125 3121 3120 3118 3119 3119 3120 3119 3120 3123 3121 3130 3129 3131 3133 3138 3137 3137 3138 3142 3146 3147 3152 3153 3154 3158 3160 3163 3166 3169 3169 3173 3175 3176 3176 3175 3178 3173 3177 3178 3180 3181 3184 3187 3189
3122 3119 3117 3116 3116 3116 3117 3118 3121 3125 3120 3126 3127 3131 3134 3136 3137 3137 3139 3141 3143 3147 3148 3151 3151 3155 3158 3160 3163 3166 3169 3171 3173 3173 3169 3171 3174 3170 3172 3176 3178 3180 3181 3183 3186
3118 3116 3115 3114 3115 3115 3116 3119 3124 3119 3123 3125 3126 3129 3133 3136 3137 3140 3140 3141 3142 3146 3146 3149 3151 3152 3154 3158 3160 3163 3166 3165 3168 3165 3163 3165 3168 3169 3170 3173 3176 3177 3178 3180 3183
3115 3115 3113 3112 3113 3114 3116 3121 3120 3120 3120 3121 3124 3128 3132 3134 3137 3139 3141 3141 3141 3142 3144 3145 3149 3149 3151 3154 3157 3159 3161 3157 3157 3152 3156 3161 3163 3165 3169 3171 3173 3174 3176 3177 3179
3113 3113 3112 3111 3112 3114 3117 3121 3119 3120 3120 3120 3123 3127 3130 3132 3135 3138 3139 3140 3140 3141 3144 3144 3145 3146 3149 3152 3155 3155 3156 3159 3156 3156 3153 3150 3160 3163 3164 3167 3170 3171 3171 3173 3176
3112 3111 3111 3111 3112 3114 3118 3118 3118 3117 3119 3120 3122 3123 3126 3130 3134 3135 3138 3138 3139 3140 3142 3144 3144 3146 3147 3149 3151 3151 3154 3157 3157 3154 3152 3149 3152 3155 3159 3163 3167 3167 3169 3171 3172
3111 3110 3109 3110 3111 3113 3116 3116 3116 3116 3117 3121 3121 3122 3124 3127 3131 3133 3135 3135 3136 3138 3140 3143 3143 3145 3147 3147 3146 3151 3151 3151 3150 3152 3147 3149 3149 3154 3156 3157 3159 3162 3164 3165 3168
3109 3111 3107 3109 3112 3110 3112 3114 3113 3116 3117 3117 3118 3121 3124 3125 3128 3130 3132 3132 3133 3136 3140 3140 3141 3140 3142 3143 3146 3147 3146 3147 3147 3149 3150 3148 3148 3149 3152 3155 3155 3156 3159 3161 3163
3106 3105 3105 3106 3110 3110 3108 3110 3112 3115 3115 3117 3116 3118 3120 3123 3127 3127 3128 3129 3131 3134 3137 3138 3140 3139 3142 3146 3145 3146 3147 3148 3148 3147 3144 3148 3149 3149 3150 3150 3151 3153 3155 3157 3159
3103 3104 3103 3103 3103 3106 3107 3108 3109 3112 3112 3114 3116 3118 3120 3122 3123 3125 3127 3127 3129 3131 3134 3136 3138 3138 3134 3137 3138 3143 3145 3146 3146 3144 3144 3144 3145 3148 3145 3149 3149 3150 3151 3152 3155
3099 3098 3098 3101 3101 3103 3104 3106 3108 3110 3111 3113 3116 3117 3120 3121 3123 3124 3125 3125 3128 3129 3131 3134 3136 3137 3137 3138 3139 3142 3143 3144 3145 3145 3143 3142 3144 3145 3142 3145 3146 3148 3148 3149 3150
3095 3094 3094 3094 3095 3098 3100 3103 3107 3106 3110 3112 3115 3114 3116 3119 3120 3122 3124 3127 3128 3127 3129 3131 3133 3134 3135 3137 3138 3139 3140 3142 3143 3143 3144 3143 3143 3140 3139 3140 3143 3145 3147 3148 3149
3089 3088 3089 3091 3093 3095 3098 3099 3101 3102 3107 3109 3111 3113 3114 3113 3114 3116 3118 3120 3121 3125 3127 3129 3131 3132 3130 3132 3135 3135 3135 3137 3139 3139 3141 3142 3141 3137 3136 3137 3139 3141 3144 3146 3147